Weather History for Puyallup, WA

Change the Weather History Date:

Wednesday, January 29, 2014

  Actual Average (KTCM) Record (KTCM)
Temperature  
Mean Temperature 46 °F -  
Max Temperature 50 °F 46 °F 59 °F (1992)
Min Temperature 41 °F 33 °F 6 °F (1980)
Degree Days  
Heating Degree Days 19    
Moisture  
Dew Point 45 °F    
Average Humidity 99    
Maximum Humidity 100    
Minimum Humidity 87    
Precipitation  
Precipitation 0.87 in - - ()
Sea Level Pressure  
Sea Level Pressure 29.76 in    
Wind  
Wind Speed 3 mph (SW)    
Max Wind Speed 10 mph    
Max Gust Speed 16 mph    
Visibility 6 miles    
Events Rain    
Averages and records for this station are not official NWS values.
T = Trace of Precipitation, MM = Missing Value Source: NWS Daily Summary

Daily Weather History Graph

Daily Weather History Graph

Search for Another Location

Airport:

Trip Planner

Search our weather history database for the weather conditions in past years. The results will help you decide how hot, cold, wet, or windy it might be!

Date:

Astronomy

Jan. 29, 2014 Rise Set
Actual Time 7:37 AM PST 5:07 PM PST
Civil Twilight 7:04 AM PST 5:40 PM PST
Nautical Twilight 6:28 AM PST 6:17 PM PST
Astronomical Twilight 5:52 AM PST 6:52 PM PST
Moon 6:19 AM PST (1/29) 4:14 PM PST (1/29)
Length of Visible Light 10h 35m
Length of Day
9h 29m
Waning Crescent, 2% of the Moon is Illuminated
Jan 29
Waning Crescent
Jan 30
New
Feb 6
First Quarter
Feb 14
Full
Feb 22
Last Quarter

Hourly Weather History & Observations

Time (PST) Temp. Windchill Dew Point Humidity Pressure Visibility Wind Dir Wind Speed Gust Speed Precip Events Conditions
12:15 AM 42.8 °F - 42.8 °F 100% 29.90 in 3.0 mi Calm Calm - 0.04 in Rain Rain
12:35 AM 42.8 °F 41.1 °F 42.8 °F 100% 29.90 in 3.0 mi West 3.5 mph - 0.11 in Rain Rain
12:55 AM 42.8 °F - 42.8 °F 100% 29.89 in 3.0 mi Calm Calm - 0.17 in Rain Rain
1:15 AM 42.8 °F - 42.8 °F 100% 29.87 in 2.5 mi Calm Calm - 0.04 in Rain Rain
1:35 AM 42.8 °F - 42.8 °F 100% 29.87 in 2.0 mi Calm Calm - 0.10 in Rain Rain
1:55 AM 42.8 °F - 42.8 °F 100% 29.86 in 1.8 mi Calm Calm - 0.14 in Rain Light Rain
2:15 AM 42.8 °F - 42.8 °F 100% 29.85 in 3.0 mi Calm Calm - 0.01 in Rain Light Rain
2:35 AM 42.8 °F 40.1 °F 42.8 °F 100% 29.85 in 1.8 mi NNW 4.6 mph - 0.04 in Rain Light Rain
2:55 AM 42.8 °F - 42.8 °F 100% 29.86 in 3.0 mi Calm Calm - 0.11 in Rain Rain
3:15 AM 42.8 °F - 42.8 °F 100% 29.84 in 2.0 mi Calm Calm - 0.04 in Rain Light Rain
3:35 AM 42.8 °F - 42.8 °F 100% 29.83 in 3.0 mi Calm Calm - 0.07 in Rain Light Rain
3:55 AM 42.8 °F - 42.8 °F 100% 29.81 in 9.0 mi Calm Calm - 0.08 in Rain Light Rain
4:15 AM 42.8 °F - 42.8 °F 100% 29.80 in 10.0 mi Calm Calm - N/A   Unknown
4:35 AM 42.8 °F - 42.8 °F 100% 29.80 in 10.0 mi Calm Calm - N/A   Unknown
4:55 AM 44.6 °F - 44.6 °F 100% 29.79 in 10.0 mi Calm Calm - N/A   Unknown
5:15 AM 46.4 °F 44.3 °F 46.4 °F 100% 29.78 in 10.0 mi SSW 4.6 mph - N/A   Unknown
5:55 AM 48.2 °F - 48.2 °F 100% 29.80 in 6.0 mi SSW 5.8 mph - N/A   Mist
6:15 AM 48.2 °F - 48.2 °F 100% 29.78 in 7.0 mi SSW 4.6 mph - N/A Rain Light Rain
6:35 AM 48.2 °F - 48.2 °F 100% 29.78 in 10.0 mi SSW 6.9 mph - N/A   Unknown
6:55 AM 48.2 °F - 48.2 °F 100% 29.78 in 9.0 mi SSW 5.8 mph - N/A   Unknown
7:15 AM 48.2 °F - 48.2 °F 100% 29.78 in 10.0 mi SSW 5.8 mph - N/A   Unknown
7:35 AM 48.2 °F - 48.2 °F 100% 29.77 in 9.0 mi SSW 3.5 mph - N/A   Unknown
7:55 AM 48.2 °F - 48.2 °F 100% 29.77 in 7.0 mi SSW 5.8 mph - N/A   Unknown
8:15 AM 48.2 °F - 46.4 °F 93% 29.76 in 10.0 mi SSW 6.9 mph - N/A   Unknown
8:35 AM 48.2 °F - 46.4 °F 93% 29.74 in 10.0 mi SSW 5.8 mph - N/A   Unknown
8:55 AM 48.2 °F - 46.4 °F 93% 29.73 in 10.0 mi SSW 5.8 mph - N/A   Unknown
9:15 AM 50.0 °F - 46.4 °F 87% 29.72 in 10.0 mi SSW 4.6 mph - N/A   Unknown
9:35 AM 50.0 °F - 46.4 °F 87% 29.71 in 10.0 mi SSW 4.6 mph - N/A   Unknown
9:55 AM 50.0 °F - 46.4 °F 87% 29.71 in 10.0 mi SW 3.5 mph - N/A   Unknown
10:15 AM 50.0 °F - 46.4 °F 87% 29.71 in 10.0 mi South 3.5 mph - N/A   Unknown
10:35 AM 50.0 °F - 48.2 °F 94% 29.71 in 3.0 mi SSW 4.6 mph - 0.01 in Rain Light Rain
10:55 AM 48.2 °F - 48.2 °F 100% 29.69 in 5.0 mi SSE 3.5 mph - 0.01 in Rain Light Rain
11:15 AM 48.2 °F - 48.2 °F 100% 29.67 in 10.0 mi SSE 4.6 mph - N/A   Unknown
11:35 AM 48.2 °F - 48.2 °F 100% 29.67 in 2.5 mi SW 3.5 mph - 0.02 in Rain Light Rain
11:55 AM 48.2 °F - 48.2 °F 100% 29.67 in 3.0 mi SW 4.6 mph - 0.07 in Rain Rain
12:15 PM 48.2 °F - 48.2 °F 100% 29.66 in 5.0 mi SSW 3.5 mph - 0.01 in Rain Light Rain
12:35 PM 48.2 °F - 48.2 °F 100% 29.64 in 9.0 mi SSW 3.5 mph - 0.02 in Rain Light Rain
12:55 PM 48.2 °F - 48.2 °F 100% 29.64 in 10.0 mi SSW 4.6 mph - 0.02 in   Unknown
1:15 PM 48.2 °F - 48.2 °F 100% 29.64 in 10.0 mi South 4.6 mph - N/A   Unknown
1:35 PM 48.2 °F - 48.2 °F 100% 29.63 in 9.0 mi South 6.9 mph - N/A Rain Light Rain
1:55 PM 48.2 °F - 48.2 °F 100% 29.62 in 10.0 mi South 3.5 mph - N/A Rain Light Rain
2:15 PM 48.2 °F - 48.2 °F 100% 29.62 in 5.0 mi Calm Calm - 0.01 in Rain Light Rain
2:35 PM 48.2 °F - 48.2 °F 100% 29.63 in 8.0 mi SW 10.4 mph - 0.03 in Rain Light Rain
2:55 PM 48.2 °F - 48.2 °F 100% 29.64 in 4.0 mi SW 8.1 mph - 0.04 in Rain Light Rain
3:15 PM 46.4 °F 41.9 °F 46.4 °F 100% 29.65 in 2.0 mi SSW 9.2 mph - 0.02 in Rain Light Rain
3:35 PM 46.4 °F 41.9 °F 46.4 °F 100% 29.67 in 1.5 mi SW 9.2 mph - 0.03 in Rain Light Rain
3:55 PM 46.4 °F 42.9 °F 46.4 °F 100% 29.68 in 1.5 mi SW 6.9 mph 16.1 mph 0.05 in Rain Light Rain
4:15 PM 44.6 °F 41.4 °F 44.6 °F 100% 29.69 in 2.5 mi SW 5.8 mph - 0.01 in Rain Light Rain
4:35 PM 44.6 °F 41.4 °F 44.6 °F 100% 29.70 in 1.8 mi WSW 5.8 mph - 0.01 in Rain Light Rain
4:55 PM 44.6 °F 40.7 °F 44.6 °F 100% 29.73 in 1.0 mi NNW 6.9 mph - 0.04 in Rain Rain
5:15 PM 44.6 °F 43.1 °F 44.6 °F 100% 29.74 in 2.5 mi NNW 3.5 mph - 0.02 in Rain Light Rain
5:35 PM 42.8 °F - 42.8 °F 100% 29.75 in 3.0 mi Calm Calm - 0.02 in Rain Light Rain
5:55 PM 42.8 °F - 42.8 °F 100% 29.76 in 4.0 mi Calm Calm - 0.03 in Rain Light Rain
6:15 PM 42.8 °F - 42.8 °F 100% 29.76 in 2.5 mi Calm Calm - N/A Rain Light Rain
6:35 PM 44.6 °F - 44.6 °F 100% 29.76 in 3.0 mi Calm Calm - 0.01 in Rain Light Rain
6:55 PM 44.6 °F - 44.6 °F 100% 29.77 in 4.0 mi Calm Calm - 0.01 in Rain Light Rain
7:15 PM 42.8 °F - 42.8 °F 100% 29.78 in 3.0 mi Calm Calm - 0.01 in Rain Light Rain
7:35 PM 42.8 °F - 42.8 °F 100% 29.78 in 2.0 mi Calm Calm - 0.03 in Rain Light Rain
7:55 PM 42.8 °F - 42.8 °F 100% 29.79 in 7.0 mi Calm Calm - 0.04 in Rain Light Rain
8:15 PM 42.8 °F - 42.8 °F 100% 29.80 in 1.5 mi Calm Calm - 0.01 in Rain Light Rain
8:35 PM 42.8 °F - 42.8 °F 100% 29.81 in 2.5 mi Calm Calm - 0.01 in Rain Light Rain
8:55 PM 42.8 °F - 42.8 °F 100% 29.82 in 1.5 mi Calm Calm - 0.01 in Rain Light Rain
9:15 PM 42.8 °F - 42.8 °F 100% 29.82 in 1.8 mi Calm Calm - 0.01 in Rain Light Rain
9:35 PM 42.8 °F - 42.8 °F 100% 29.82 in 2.0 mi Calm Calm - 0.02 in Rain Light Rain
9:55 PM 42.8 °F 41.1 °F 42.8 °F 100% 29.83 in 2.0 mi SW 3.5 mph - 0.02 in Rain Light Rain
10:15 PM 42.8 °F - 42.8 °F 100% 29.83 in 1.8 mi Calm Calm - 0.02 in Rain Light Rain
10:35 PM 42.8 °F 39.3 °F 42.8 °F 100% 29.83 in 1.8 mi SW 5.8 mph - 0.03 in Rain Light Rain
10:55 PM 42.8 °F 38.0 °F 42.8 °F 100% 29.84 in 10.0 mi SW 8.1 mph - 0.03 in   Unknown
11:15 PM 42.8 °F 38.6 °F 42.8 °F 100% 29.84 in 10.0 mi SW 6.9 mph - N/A   Unknown
11:35 PM 42.8 °F 37.5 °F 42.8 °F 100% 29.85 in 6.0 mi WSW 9.2 mph 16.1 mph N/A   Mist
11:55 PM 41.0 °F 37.1 °F 41.0 °F 100% 29.85 in 10.0 mi SW 5.8 mph - N/A   Unknown